K6OUA-11 Weather Reports


time (UTC)temp
C
wind
direction
speed
KPH
gust
KPH
rain 1hr
cm
rain 24hr
cm
rain mn
cm
humidity
%
barometer
mb
20180524113645 13 90 0.0 1.6 0.00 0.00 0.00 85 1010.1
20180524113044 13 90 0.0 0.0 0.00 0.00 0.00 85 1010.2
20180524112604 13 90 0.0 1.6 0.00 0.00 0.00 85 1010.2
20180524112441 13 90 0.0 1.6 0.00 0.00 0.00 85 1010.2
20180524112139 13 171 0.0 1.6 0.00 0.00 0.00 85 1010.3
20180524111838 13 90 0.0 1.6 0.00 0.00 0.00 85 1010.3
20180524111414 13 143 1.6 3.2 0.00 0.00 0.00 85 1010.1
20180524111237 13 143 1.6 3.2 0.00 0.00 0.00 85 1010.1
20180524110934 13 101 1.6 3.2 0.00 0.00 0.00 85 1010.3
20180524110800 13 135 1.6 3.2 0.00 0.00 0.00 85 1010.4
20180524110634 13 135 1.6 3.2 0.00 0.00 0.00 85 1010.4
20180524105730 13 222 0.0 1.6 0.00 0.00 0.00 85 1010.3
20180524105429 13 27 1.6 1.6 0.00 0.00 0.00 85 1010.3
20180524104832 13 225 0.0 0.0 0.00 0.00 0.00 85 1010.4
20180524104527 13 247 0.0 0.0 0.00 0.00 0.00 85 1010.5
20180524104224 13 247 0.0 0.0 0.00 0.00 0.00 85 1010.4
20180524103843 13 247 0.0 0.0 0.00 0.00 0.00 85 1010.4
20180524103623 13 247 0.0 0.0 0.00 0.00 0.00 85 1010.4
20180524103321 13 247 0.0 0.0 0.00 0.00 0.00 85 1010.4
20180524103022 13 247 0.0 0.0 0.00 0.00 0.00 85 1010.3
20180524102721 13 247 0.0 0.0 0.00 0.00 0.00 85 1010.4
20180524102650 13 247 0.0 0.0 0.00 0.00 0.00 85 1010.5
20180524102419 13 247 0.0 0.0 0.00 0.00 0.00 85 1010.5
20180524102118 13 247 0.0 0.0 0.00 0.00 0.00 86 1010.5
20180524101815 13 270 0.0 0.0 0.00 0.00 0.00 85 1010.3
20180524101356 13 270 0.0 0.0 0.00 0.00 0.00 85 1010.3
20180524101214 13 270 0.0 0.0 0.00 0.00 0.00 85 1010.3
20180524100912 12 270 0.0 0.0 0.00 0.00 0.00 85 1010.4
20180524100615 12 270 0.0 0.0 0.00 0.00 0.00 85 1010.4
20180524095708 12 270 0.0 0.0 0.00 0.00 0.00 86 1010.4
20180524095506 12 270 0.0 1.6 0.00 0.00 0.00 85 1010.4
20180524095408 12 270 0.0 1.6 0.00 0.00 0.00 85 1010.4
20180524095247 12 270 0.0 0.0 0.00 0.00 0.00 86 1010.4
20180524095110 12 270 0.0 0.0 0.00 0.00 0.00 86 1010.4
20180524095108 12 270 0.0 0.0 0.00 0.00 0.00 86 1010.4
20180524095034 12 270 0.0 1.6 0.00 0.00 0.00 85 1010.3
20180524094806 12 270 0.0 1.6 0.00 0.00 0.00 85 1010.3
20180524094804 12 270 0.0 1.6 0.00 0.00 0.00 85 1010.3
20180524094622 12 225 0.0 1.6 0.00 0.00 0.00 85 1010.5
20180524094505 12 225 0.0 1.6 0.00 0.00 0.00 85 1010.5
20180524094503 12 225 0.0 1.6 0.00 0.00 0.00 85 1010.5
20180524094205 12 225 0.0 0.0 0.00 0.00 0.00 86 1010.5
20180524093904 12 225 0.0 0.0 0.00 0.00 0.00 85 1010.5
20180524093602 12 225 0.0 0.0 0.00 0.00 0.00 85 1010.6
20180524093301 12 207 0.0 1.6 0.00 0.00 0.00 85 1010.5
20180524092056 12 249 0.0 1.6 0.00 0.00 0.00 85 1010.3
20180524091755 12 270 0.0 3.2 0.00 0.00 0.00 86 1010.4
20180524091629 12 225 0.0 0.0 0.00 0.00 0.00 85 1010.4
20180524091453 12 225 0.0 0.0 0.00 0.00 0.00 85 1010.4
20180524091153 12 225 0.0 0.0 0.00 0.00 0.00 85 1010.5
20180524091025 12 225 0.0 0.0 0.00 0.00 0.00 85 1010.5
20180524090851 12 225 0.0 0.0 0.00 0.00 0.00 85 1010.5
20180524090250 12 225 0.0 0.0 0.00 0.00 0.00 85 1010.4
20180524090129 12 45 0.0 0.0 0.00 0.00 0.00 85 1010.4
20180524085948 12 45 0.0 0.0 0.00 0.00 0.00 85 1010.4
20180524085344 12 45 0.0 0.0 0.00 0.00 0.00 86 1010.5
20180524085043 12 45 0.0 0.0 0.00 0.00 0.00 85 1010.6
20180524084742 12 45 0.0 0.0 0.00 0.00 0.00 86 1010.4
20180524084443 12 45 0.0 0.0 0.00 0.00 0.00 86 1010.4
20180524084247 12 45 0.0 1.6 0.00 0.00 0.00 85 1010.3
20180524084141 12 45 0.0 1.6 0.00 0.00 0.00 85 1010.3
20180524083841 12 45 1.6 1.6 0.00 0.00 0.00 86 1010.4
20180524083234 12 45 0.0 0.0 0.00 0.00 0.00 86 1010.3
20180524082931 12 45 0.0 0.0 0.00 0.00 0.00 86 1010.5
20180524082629 12 45 0.0 0.0 0.00 0.00 0.00 86 1010.5
20180524082330 12 45 0.0 0.0 0.00 0.00 0.00 86 1010.5
20180524082027 12 45 0.0 1.6 0.00 0.00 0.00 86 1010.4
20180524082004 12 45 0.0 1.6 0.00 0.00 0.00 86 1010.6
20180524081730 12 45 0.0 1.6 0.00 0.00 0.00 86 1010.6
20180524081728 12 45 0.0 1.6 0.00 0.00 0.00 86 1010.6
20180524081425 12 67 0.0 1.6 0.00 0.00 0.00 86 1010.4
20180524081124 12 67 0.0 1.6 0.00 0.00 0.00 86 1010.5
20180524080823 12 67 0.0 1.6 0.00 0.00 0.00 85 1010.6
20180524080522 12 45 0.0 1.6 0.00 0.00 0.00 85 1010.6
20180524080223 12 67 0.0 1.6 0.00 0.00 0.00 86 1010.6
20180524075921 12 90 1.6 1.6 0.00 0.00 0.00 85 1010.6
20180524075620 12 90 0.0 1.6 0.00 0.00 0.00 85 1010.5
20180524075317 12 84 1.6 1.6 0.00 0.00 0.00 86 1010.5
20180524075018 12 315 0.0 3.2 0.00 0.00 0.00 86 1010.5
20180524074717 12 225 0.0 4.8 0.00 0.00 0.00 86 1010.5
20180524074415 12 348 4.8 4.8 0.00 0.00 0.00 86 1010.5
20180524074259 12 45 0.0 4.8 0.00 0.00 0.00 86 1010.6
20180524074114 12 45 0.0 4.8 0.00 0.00 0.00 86 1010.6
20180524073812 12 180 0.0 6.4 0.00 0.00 0.00 86 1010.5
20180524073513 12 8 3.2 4.8 0.00 0.00 0.00 86 1010.5
20180524073342 12 96 1.6 3.2 0.00 0.00 0.00 85 1010.7
20180524073211 12 96 1.6 3.2 0.00 0.00 0.00 85 1010.7
20180524072908 12 135 0.0 1.6 0.00 0.00 0.00 86 1010.6
20180524072609 12 180 0.0 0.0 0.00 0.00 0.00 85 1010.7
20180524072453 12 180 1.6 1.6 0.00 0.00 0.00 86 1010.6
20180524072307 12 180 1.6 1.6 0.00 0.00 0.00 86 1010.6
20180524072009 12 135 0.0 1.6 0.00 0.00 0.00 85 1010.6
20180524071930 12 225 0.0 1.6 0.00 0.00 0.00 86 1010.7
20180524071704 12 225 0.0 1.6 0.00 0.00 0.00 86 1010.7
20180524071404 12 225 0.0 1.6 0.00 0.00 0.00 85 1010.6
20180524071102 12 135 0.0 1.6 0.00 0.00 0.00 86 1010.6
20180524070455 12 213 0.0 1.6 0.00 0.00 0.00 85 1010.6
20180524070155 12 225 0.0 0.0 0.00 0.00 0.00 86 1010.6
20180524065854 12 225 0.0 0.0 0.00 0.00 0.00 86 1010.8
20180524065553 12 225 0.0 0.0 0.00 0.00 0.00 86 1010.8
20180524065255 12 225 0.0 0.0 0.00 0.00 0.00 86 1010.8
20180524064951 12 225 0.0 0.0 0.00 0.00 0.00 85 1010.8
20180524064347 12 225 0.0 0.0 0.00 0.00 0.00 85 1010.9
20180524064046 12 225 0.0 0.0 0.00 0.00 0.00 85 1010.9
20180524063745 12 225 0.0 0.0 0.00 0.00 0.00 85 1011.0
20180524063444 12 225 0.0 0.0 0.00 0.00 0.00 85 1010.9
20180524063251 12 225 0.0 0.0 0.00 0.00 0.00 85 1011.0
20180524062842 12 225 0.0 0.0 0.00 0.00 0.00 85 1011.0
20180524062541 12 225 0.0 0.0 0.00 0.00 0.00 85 1010.9
20180524062239 12 225 0.0 0.0 0.00 0.00 0.00 85 1010.8
20180524061940 11 225 0.0 0.0 0.00 0.00 0.00 85 1010.7
20180524061637 11 225 0.0 3.2 0.00 0.00 0.00 85 1010.9
20180524061337 11 270 3.2 3.2 0.00 0.00 0.00 85 1010.9
20180524061037 11 225 0.0 0.0 0.00 0.00 0.00 85 1011.0
20180524060736 11 225 0.0 1.6 0.00 0.00 0.00 84 1011.0
20180524060432 11 225 0.0 0.0 0.00 0.00 0.00 84 1011.0
20180524060133 11 225 0.0 0.0 0.00 0.00 0.00 84 1011.0
20180524055531 11 225 0.0 0.0 0.00 0.00 0.00 83 1010.8
20180524055228 11 225 0.0 0.0 0.00 0.00 0.00 83 1010.8
20180524054929 11 225 0.0 0.0 0.00 0.00 0.00 83 1010.9
20180524054626 11 225 0.0 0.0 0.00 0.00 0.00 83 1010.9
20180524053725 11 225 0.0 0.0 0.00 0.00 0.00 83 1011.0
20180524053421 11 225 0.0 0.0 0.00 0.00 0.00 83 1010.8
20180524053122 11 225 0.0 0.0 0.00 0.00 0.00 82 1010.8
20180524052819 11 225 0.0 0.0 0.00 0.00 0.00 83 1010.9
20180524052212 11 252 1.6 4.8 0.00 0.00 0.00 83 1010.7
20180524051914 11 254 1.6 4.8 0.00 0.00 0.00 82 1010.6
20180524051613 11 270 1.6 4.8 0.00 0.00 0.00 82 1010.6
20180524051312 11 256 1.6 3.2 0.00 0.00 0.00 82 1010.6
20180524051010 11 267 1.6 3.2 0.00 0.00 0.00 82 1010.4
20180524050706 12 225 0.0 1.6 0.00 0.00 0.00 82 1010.5
20180524045805 12 254 1.6 3.2 0.00 0.00 0.00 81 1010.4
20180524045204 12 270 4.8 4.8 0.00 0.00 0.00 80 1010.4
20180524044901 12 254 1.6 3.2 0.00 0.00 0.00 81 1010.2
20180524044559 12 238 1.6 4.8 0.00 0.00 0.00 80 1010.2
20180524044258 12 258 1.6 4.8 0.00 0.00 0.00 80 1010.1
20180524043957 12 232 3.2 3.2 0.00 0.00 0.00 80 1010.1
20180524043657 12 247 1.6 4.8 0.00 0.00 0.00 79 1010.0
20180524043354 12 252 1.6 4.8 0.00 0.00 0.00 80 1009.9
20180524042752 12 265 3.2 4.8 0.00 0.00 0.00 79 1009.8
20180524042453 12 252 1.6 4.8 0.00 0.00 0.00 79 1009.8
20180524042151 12 265 4.8 6.4 0.00 0.00 0.00 79 1009.8
20180524041851 12 270 3.2 6.4 0.00 0.00 0.00 79 1009.6
20180524041550 12 270 3.2 3.2 0.00 0.00 0.00 78 1009.7
20180524041248 12 265 1.6 1.6 0.00 0.00 0.00 78 1009.5
20180524040947 12 225 0.0 1.6 0.00 0.00 0.00 77 1009.7
20180524040646 12 247 0.0 3.2 0.00 0.00 0.00 77 1009.6
20180524040044 12 225 0.0 1.6 0.00 0.00 0.00 76 1009.4
20180524035741 12 225 0.0 0.0 0.00 0.00 0.00 76 1009.3
20180524035440 12 225 0.0 1.6 0.00 0.00 0.00 76 1009.3
20180524035139 12 225 0.0 0.0 0.00 0.00 0.00 75 1009.2
20180524034838 12 225 0.0 1.6 0.00 0.00 0.00 74 1009.2
20180524034539 12 225 0.0 1.6 0.00 0.00 0.00 74 1009.0
20180524034235 13 229 0.0 0.0 0.00 0.00 0.00 74 1009.1
20180524033934 13 227 0.0 0.0 0.00 0.00 0.00 73 1009.1
20180524033033 13 225 0.0 0.0 0.00 0.00 0.00 71 1009.1
20180524032730 13 225 0.0 0.0 0.00 0.00 0.00 71 1009.0
20180524032429 13 225 0.0 0.0 0.00 0.00 0.00 71 1009.0
20180524032128 14 225 0.0 0.0 0.00 0.00 0.00 71 1008.9
20180524031828 14 225 0.0 0.0 0.00 0.00 0.00 70 1008.8
20180524031527 14 225 0.0 0.0 0.00 0.00 0.00 69 1008.9
20180524031224 15 213 0.0 0.0 0.00 0.00 0.00 68 1008.9
20180524030927 15 225 0.0 0.0 0.00 0.00 0.00 68 1008.9
20180524030626 15 209 0.0 1.6 0.00 0.00 0.00 68 1008.8
20180524030321 15 245 0.0 0.0 0.00 0.00 0.00 67 1008.8
20180524030022 16 227 0.0 1.6 0.00 0.00 0.00 67 1009.0
20180524025719 16 227 1.6 3.2 0.00 0.00 0.00 66 1008.8
20180524025418 16 236 0.0 3.2 0.00 0.00 0.00 66 1008.6
20180524024816 17 232 0.0 3.2 0.00 0.00 0.00 65 1008.5
20180524024213 17 225 0.0 3.2 0.00 0.00 0.00 64 1008.6
20180524023916 17 231 0.0 4.8 0.00 0.00 0.00 64 1008.5
20180524023613 17 267 1.6 4.8 0.00 0.00 0.00 63 1008.5
20180524023310 18 218 0.0 1.6 0.00 0.00 0.00 63 1008.4
20180524023009 18 231 0.0 6.4 0.00 0.00 0.00 63 1008.5
20180524022712 18 245 1.6 4.8 0.00 0.00 0.00 62 1008.8
20180524022408 18 242 3.2 4.8 0.00 0.00 0.00 63 1008.7
20180524021805 18 225 0.0 8.0 0.00 0.00 0.00 62 1008.5
20180524021202 19 236 0.0 8.0 0.00 0.00 0.00 62 1008.3
20180524020902 19 220 0.0 6.4 0.00 0.00 0.00 62 1008.4
20180524020613 19 176 1.6 4.8 0.00 0.00 0.00 61 1008.4
20180524020301 19 220 1.6 4.8 0.00 0.00 0.00 62 1008.3
20180524020001 19 227 0.0 6.4 0.00 0.00 0.00 61 1008.3
20180524015658 19 230 0.0 9.7 0.00 0.00 0.00 62 1008.3
20180524015358 19 238 4.8 9.7 0.00 0.00 0.00 61 1008.2
20180524015055 19 225 1.6 11.3 0.00 0.00 0.00 61 1008.1
20180524014454 19 252 6.4 8.0 0.00 0.00 0.00 60 1008.1
20180524014151 20 230 4.8 9.7 0.00 0.00 0.00 60 1008.1
20180524013852 20 234 4.8 12.9 0.00 0.00 0.00 60 1008.0
20180524013551 20 258 9.7 12.9 0.00 0.00 0.00 60 1008.0
20180524013250 20 252 6.4 12.9 0.00 0.00 0.00 60 1008.1
20180524012949 20 258 11.3 12.9 0.00 0.00 0.00 59 1007.9
20180524012345 20 227 4.8 16.1 0.00 0.00 0.00 59 1008.0
20180524012044 20 239 6.4 8.0 0.00 0.00 0.00 59 1008.2
20180524011441 20 242 9.7 11.3 0.00 0.00 0.00 59 1008.1
20180524011145 20 225 4.8 6.4 0.00 0.00 0.00 59 1008.0
20180524010841 20 215 1.6 9.7 0.00 0.00 0.00 59 1008.1
20180524010538 21 191 6.4 14.5 0.00 0.00 0.00 58 1008.3
20180524010237 21 265 11.3 12.9 0.00 0.00 0.00 59 1007.9
20180524005938 21 240 4.8 12.9 0.00 0.00 0.00 58 1008.1
20180524005637 21 240 12.9 14.5 0.00 0.00 0.00 58 1007.9
20180524005335 21 249 9.7 14.5 0.00 0.00 0.00 58 1008.0
20180524005036 21 252 6.4 14.5 0.00 0.00 0.00 58 1008.0
20180524004735 21 252 9.7 14.5 0.00 0.00 0.00 57 1008.1
20180524004132 21 254 9.7 16.1 0.00 0.00 0.00 57 1008.0
20180524003830 22 232 6.4 14.5 0.00 0.00 0.00 57 1008.0
20180524003226 22 272 14.5 14.5 0.00 0.00 0.00 56 1007.9
20180524002927 22 191 8.0 17.7 0.00 0.00 0.00 55 1007.6
20180524002023 23 270 24.1 25.7 0.00 0.00 0.00 53 1007.8
20180524001720 23 263 12.9 16.1 0.00 0.00 0.00 54 1008.0
20180524001120 24 230 9.7 14.5 0.00 0.00 0.00 54 1008.0
20180524000819 24 222 11.3 11.3 0.00 0.00 0.00 54 1008.0
20180524000215 24 253 3.2 11.3 0.00 0.00 0.00 54 1007.9
20180523235914 24 254 8.0 9.7 0.00 0.00 0.00 54 1007.9
20180523235012 24 236 1.6 11.3 0.00 0.00 0.00 54 1007.9
20180523234408 24 245 3.2 11.3 0.00 0.00 0.00 54 1007.9
20180523234109 24 243 6.4 12.9 0.00 0.00 0.00 54 1007.8
20180523233806 24 244 8.0 11.3 0.00 0.00 0.00 54 1007.9
20180523233507 24 185 4.8 11.3 0.00 0.00 0.00 54 1007.9
20180523233204 24 245 9.7 9.7 0.00 0.00 0.00 55 1007.9
20180523232903 24 220 4.8 11.3 0.00 0.00 0.00 55 1007.7
20180523232604 24 230 0.0 8.0 0.00 0.00 0.00 55 1007.7
20180523232302 24 247 8.0 12.9 0.00 0.00 0.00 55 1007.8
20180523231701 24 256 6.4 12.9 0.00 0.00 0.00 55 1007.9
20180523231056 24 272 3.2 16.1 0.00 0.00 0.00 54 1007.9
20180523230757 24 265 11.3 12.9 0.00 0.00 0.00 55 1007.8
20180523230457 24 222 11.3 11.3 0.00 0.00 0.00 55 1008.0
20180523230154 24 235 4.8 11.3 0.00 0.00 0.00 55 1008.1
20180523225853 24 255 6.4 11.3 0.00 0.00 0.00 55 1008.0
20180523225551 24 245 8.0 12.9 0.00 0.00 0.00 55 1008.0
20180523225251 24 225 4.8 9.7 0.00 0.00 0.00 56 1008.1
20180523224950 24 192 3.2 8.0 0.00 0.00 0.00 55 1008.3
20180523224647 24 276 6.4 14.5 0.00 0.00 0.00 55 1008.1
20180523224346 24 230 8.0 9.7 0.00 0.00 0.00 55 1008.1
20180523224049 24 252 4.8 11.3 0.00 0.00 0.00 56 1008.1
20180523224047 24 252 4.8 11.3 0.00 0.00 0.00 56 1008.1
20180523223746 24 252 9.7 12.9 0.00 0.00 0.00 55 1008.2
20180523223445 24 272 8.0 12.9 0.00 0.00 0.00 55 1008.2
20180523223144 24 266 4.8 9.7 0.00 0.00 0.00 56 1008.2
20180523222843 24 254 8.0 8.0 0.00 0.00 0.00 56 1008.2
20180523222540 24 270 9.7 14.5 0.00 0.00 0.00 56 1008.3
20180523222238 23 240 8.0 11.3 0.00 0.00 0.00 57 1008.4
20180523221937 23 173 1.6 14.5 0.00 0.00 0.00 58 1008.4
20180523221636 23 189 3.2 9.7 0.00 0.00 0.00 58 1008.5
20180523221337 23 245 9.7 11.3 0.00 0.00 0.00 57 1008.4
20180523221034 23 249 3.2 11.3 0.00 0.00 0.00 58 1008.3
20180523220735 23 220 3.2 14.5 0.00 0.00 0.00 58 1008.4
20180523220432 23 256 11.3 11.3 0.00 0.00 0.00 58 1008.4
20180523220133 23 207 8.0 12.9 0.00 0.00 0.00 58 1008.5
20180523215830 23 234 8.0 12.9 0.00 0.00 0.00 58 1008.4
20180523215530 23 252 9.7 14.5 0.00 0.00 0.00 58 1008.4
20180523215228 22 222 8.0 17.7 0.00 0.00 0.00 58 1008.4
20180523214928 22 257 8.0 14.5 0.00 0.00 0.00 58 1008.4
20180523214627 22 262 11.3 16.1 0.00 0.00 0.00 58 1008.4
20180523214025 22 274 9.7 16.1 0.00 0.00 0.00 58 1008.4
20180523213423 22 245 11.3 20.9 0.00 0.00 0.00 59 1008.5
20180523212518 22 261 9.7 17.7 0.00 0.00 0.00 58 1008.6
20180523212216 22 276 14.5 14.5 0.00 0.00 0.00 59 1008.6
20180523211917 22 272 14.5 14.5 0.00 0.00 0.00 59 1008.8
20180523211616 22 243 6.4 12.9 0.00 0.00 0.00 58 1008.8
20180523211315 22 254 8.0 12.9 0.00 0.00 0.00 58 1008.8
20180523211013 23 265 9.7 12.9 0.00 0.00 0.00 58 1008.7
20180523210713 23 249 4.8 11.3 0.00 0.00 0.00 58 1008.8
20180523210111 23 265 9.7 16.1 0.00 0.00 0.00 58 1008.7
20180523205809 23 249 6.4 11.3 0.00 0.00 0.00 58 1008.7
20180523205506 23 274 11.3 14.5 0.00 0.00 0.00 58 1008.8
20180523205208 23 258 6.4 9.7 0.00 0.00 0.00 58 1008.8
20180523204904 23 225 6.4 9.7 0.00 0.00 0.00 58 1008.8
20180523204605 23 263 6.4 9.7 0.00 0.00 0.00 58 1008.8
20180523204302 23 258 9.7 11.3 0.00 0.00 0.00 58 1008.8
20180523204003 23 258 8.0 11.3 0.00 0.00 0.00 58 1008.8
20180523203700 23 215 4.8 6.4 0.00 0.00 0.00 59 1008.9
20180523203058 23 222 0.0 11.3 0.00 0.00 0.00 59 1008.9
20180523202758 23 235 3.2 8.0 0.00 0.00 0.00 60 1009.0
20180523202457 23 234 1.6 6.4 0.00 0.00 0.00 60 1008.9
20180523202156 23 193 4.8 6.4 0.00 0.00 0.00 61 1009.0
20180523201855 22 0 1.6 4.8 0.00 0.00 0.00 60 1008.9
20180523201554 22 252 1.6 4.8 0.00 0.00 0.00 61 1008.9
20180523201253 22 261 3.2 4.8 0.00 0.00 0.00 61 1008.9
20180523200952 22 225 0.0 6.4 0.00 0.00 0.00 62 1009.0
20180523200649 22 252 6.4 6.4 0.00 0.00 0.00 62 1009.0
20180523200348 22 225 1.6 6.4 0.00 0.00 0.00 63 1009.2
20180523200047 22 204 3.2 6.4 0.00 0.00 0.00 63 1009.1
20180523195444 22 165 4.8 4.8 0.00 0.00 0.00 64 1009.0
20180523195145 21 177 0.0 4.8 0.00 0.00 0.00 64 1009.1
20180523194543 21 213 0.0 1.6 0.00 0.00 0.00 65 1009.3
20180523194240 21 105 1.6 3.2 0.00 0.00 0.00 65 1009.3
20180523193638 21 195 0.0 1.6 0.00 0.00 0.00 65 1009.2
20180523193338 21 202 0.0 3.2 0.00 0.00 0.00 66 1009.1
20180523193038 21 225 1.6 1.6 0.00 0.00 0.00 67 1009.2
20180523192433 21 249 3.2 4.8 0.00 0.00 0.00 66 1009.3
20180523191834 20 202 1.6 4.8 0.00 0.00 0.00 67 1009.3
20180523191229 20 225 0.0 3.2 0.00 0.00 0.00 68 1009.4
20180523190930 20 213 0.0 1.6 0.00 0.00 0.00 68 1009.5
20180523190627 20 175 0.0 1.6 0.00 0.00 0.00 69 1009.4
20180523185723 20 186 3.2 6.4 0.00 0.00 0.00 70 1009.5
20180523185424 20 286 0.0 6.4 0.00 0.00 0.00 70 1009.5
20180523185123 19 209 0.0 3.2 0.00 0.00 0.00 72 1009.4
20180523184820 19 198 0.0 3.2 0.00 0.00 0.00 72 1009.3
20180523184519 19 234 0.0 3.2 0.00 0.00 0.00 72 1009.3
20180523183917 18 184 3.2 4.8 0.00 0.00 0.00 73 1009.5
20180523183618 18 235 1.6 3.2 0.00 0.00 0.00 73 1009.6
20180523183317 18 225 0.0 3.2 0.00 0.00 0.00 73 1009.5
20180523183015 18 229 0.0 4.8 0.00 0.00 0.00 73 1009.4
20180523182712 18 234 1.6 3.2 0.00 0.00 0.00 73 1009.3
20180523182411 18 225 0.0 4.8 0.00 0.00 0.00 73 1009.4
20180523182112 18 249 1.6 3.2 0.00 0.00 0.00 74 1009.4
20180523181809 18 227 3.2 9.7 0.00 0.00 0.00 74 1009.3
20180523181207 18 285 3.2 6.4 0.00 0.00 0.00 74 1009.5
20180523180906 18 270 6.4 6.4 0.00 0.00 0.00 74 1009.2
20180523180606 18 276 4.8 8.0 0.00 0.00 0.00 74 1009.4
20180523180305 18 243 3.2 6.4 0.00 0.00 0.00 74 1009.5
20180523180003 18 227 4.8 8.0 0.00 0.00 0.00 75 1009.4
20180523175402 17 265 4.8 4.8 0.00 0.00 0.00 76 1009.3
20180523175101 17 270 1.6 4.8 0.00 0.00 0.00 76 1009.6
20180523174759 17 295 3.2 9.7 0.00 0.00 0.00 76 1009.5
20180523174157 17 227 1.6 8.0 0.00 0.00 0.00 77 1009.6
20180523173857 17 267 4.8 8.0 0.00 0.00 0.00 77 1009.4
20180523173555 17 245 1.6 6.4 0.00 0.00 0.00 77 1009.4
20180523173254 17 249 4.8 6.4 0.00 0.00 0.00 77 1009.5
20180523172953 16 227 0.0 6.4 0.00 0.00 0.00 78 1009.5
20180523172652 16 238 1.6 6.4 0.00 0.00 0.00 78 1009.5
20180523172050 16 247 1.6 8.0 0.00 0.00 0.00 78 1009.3
20180523171747 16 247 1.6 11.3 0.00 0.00 0.00 78 1009.3
20180523171446 16 274 11.3 11.3 0.00 0.00 0.00 79 1009.3
20180523171147 16 240 0.0 8.0 0.00 0.00 0.00 79 1009.2
20180523170845 16 267 3.2 4.8 0.00 0.00 0.00 79 1009.4
20180523170243 16 270 4.8 8.0 0.00 0.00 0.00 79 1009.2
20180523165940 16 270 4.8 6.4 0.00 0.00 0.00 80 1009.4
20180523165641 16 263 1.6 8.0 0.00 0.00 0.00 80 1009.5
20180523165342 16 270 6.4 6.4 0.00 0.00 0.00 80 1009.1
20180523165037 16 243 3.2 6.4 0.00 0.00 0.00 81 1009.5
20180523164736 16 252 1.6 6.4 0.00 0.00 0.00 81 1009.2
20180523164437 16 261 3.2 4.8 0.00 0.00 0.00 81 1009.3
20180523164134 16 236 0.0 4.8 0.00 0.00 0.00 82 1009.2
20180523163232 16 240 1.6 8.0 0.00 0.00 0.00 82 1009.1
20180523162932 16 195 0.0 4.8 0.00 0.00 0.00 83 1009.3
20180523162324 15 255 4.8 6.4 0.00 0.00 0.00 83 1009.1
20180523162024 15 234 1.6 6.4 0.00 0.00 0.00 82 1009.1
20180523160817 15 249 3.2 4.8 0.00 0.00 0.00 83 1009.0
20180523155614 15 270 4.8 6.4 0.00 0.00 0.00 84 1008.9
20180523155313 15 240 1.6 4.8 0.00 0.00 0.00 84 1009.0
20180523155012 15 225 0.0 3.2 0.00 0.00 0.00 85 1009.0
20180523153807 15 247 3.2 3.2 0.00 0.00 0.00 85 1008.8
20180523153205 14 238 1.6 3.2 0.00 0.00 0.00 86 1008.8
20180523152902 14 225 0.0 4.8 0.00 0.00 0.00 86 1008.8
20180523152302 14 230 1.6 3.2 0.00 0.00 0.00 86 1008.9
20180523151959 14 252 1.6 1.6 0.00 0.00 0.00 86 1008.9
20180523151400 13 240 1.6 1.6 0.00 0.00 0.00 86 1008.9
20180523151056 13 231 0.0 1.6 0.00 0.00 0.00 86 1008.9
20180523150754 13 225 0.0 1.6 0.00 0.00 0.00 87 1008.9
20180523150456 13 227 0.0 1.6 0.00 0.00 0.00 87 1008.8
20180523150153 13 236 0.0 3.2 0.00 0.00 0.00 87 1008.8
20180523145853 13 234 1.6 3.2 0.00 0.00 0.00 86 1008.8
20180523145851 13 234 1.6 3.2 0.00 0.00 0.00 86 1008.8
20180523145252 13 225 0.0 4.8 0.00 0.00 0.00 87 1008.7
20180523144950 13 270 4.8 6.4 0.00 0.00 0.00 87 1008.6
20180523144647 13 247 1.6 6.4 0.00 0.00 0.00 86 1008.7
20180523144347 13 247 1.6 4.8 0.00 0.00 0.00 86 1008.7
20180523144046 13 238 1.6 4.8 0.00 0.00 0.00 86 1008.5
20180523143444 13 249 4.8 4.8 0.00 0.00 0.00 86 1008.7
20180523143143 13 237 1.6 4.8 0.00 0.00 0.00 86 1008.6
20180523142842 13 249 3.2 6.4 0.00 0.00 0.00 86 1008.7
20180523142541 12 258 4.8 6.4 0.00 0.00 0.00 85 1008.5
20180523142239 12 238 3.2 6.4 0.00 0.00 0.00 85 1008.6
20180523141940 12 249 3.2 6.4 0.00 0.00 0.00 85 1008.5
20180523141937 12 249 3.2 6.4 0.00 0.00 0.00 85 1008.5
20180523141637 12 247 4.8 4.8 0.00 0.00 0.00 85 1008.5
20180523141033 12 247 3.2 4.8 0.00 0.00 0.00 85 1008.4
20180523140433 12 249 3.2 8.0 0.00 0.00 0.00 85 1008.4
20180523140131 12 270 6.4 8.0 0.00 0.00 0.00 85 1008.3
20180523135529 12 256 4.8 4.8 0.00 0.00 0.00 85 1008.1
20180523135228 12 238 1.6 4.8 0.00 0.00 0.00 85 1008.2
20180523134927 12 249 3.2 4.8 0.00 0.00 0.00 86 1008.0
20180523134325 12 263 4.8 4.8 0.00 0.00 0.00 85 1008.1
20180523134323 12 263 4.8 4.8 0.00 0.00 0.00 85 1008.1
20180523134022 12 249 0.0 3.2 0.00 0.00 0.00 86 1008.1
20180523133722 12 267 1.6 4.8 0.00 0.00 0.00 86 1008.0
20180523133422 12 263 3.2 6.4 0.00 0.00 0.00 86 1008.0
20180523133121 12 270 4.8 6.4 0.00 0.00 0.00 86 1007.8
20180523132819 12 225 0.0 4.8 0.00 0.00 0.00 86 1007.8
20180523132518 12 270 4.8 4.8 0.00 0.00 0.00 86 1007.8
20180523132216 12 245 1.6 3.2 0.00 0.00 0.00 86 1007.8
20180523131916 12 229 1.6 1.6 0.00 0.00 0.00 86 1007.7
20180523131615 12 225 0.0 1.6 0.00 0.00 0.00 87 1007.6
20180523131013 12 270 3.2 4.8 0.00 0.00 0.00 87 1007.5
20180523130712 12 270 3.2 4.8 0.00 0.00 0.00 87 1007.4
20180523130409 12 270 4.8 4.8 0.00 0.00 0.00 87 1007.5
20180523130109 12 240 1.6 1.6 0.00 0.00 0.00 88 1007.5
20180523125809 12 225 0.0 1.6 0.00 0.00 0.00 87 1007.4
20180523125206 12 225 0.0 0.0 0.00 0.00 0.00 87 1007.4
20180523124904 12 225 0.0 0.0 0.00 0.00 0.00 88 1007.4
20180523124303 12 225 0.0 0.0 0.00 0.00 0.00 88 1007.4
20180523124002 12 225 0.0 0.0 0.00 0.00 0.00 87 1007.3
20180523123359 12 180 0.0 0.0 0.00 0.00 0.00 88 1007.2
20180523123058 12 180 0.0 0.0 0.00 0.00 0.00 88 1007.4
20180523122458 12 207 0.0 1.6 0.00 0.00 0.00 88 1007.3
20180523122156 12 180 0.0 1.6 0.00 0.00 0.00 88 1007.3
20180523121853 12 135 1.6 3.2 0.00 0.00 0.00 88 1007.1
20180523121553 12 105 1.6 3.2 0.00 0.00 0.00 88 1007.3
20180523121251 11 117 1.6 3.2 0.00 0.00 0.00 88 1007.3
20180523120949 11 110 1.6 3.2 0.00 0.00 0.00 88 1007.2
20180523120648 11 135 0.0 3.2 0.00 0.00 0.00 88 1007.2
20180523120348 11 90 1.6 1.6 0.00 0.00 0.00 88 1007.2
20180523120046 11 90 0.0 1.6 0.00 0.00 0.00 88 1007.2
20180523115746 11 90 0.0 0.0 0.00 0.00 0.00 88 1007.2
20180523115444 11 90 0.0 0.0 0.00 0.00 0.00 89 1007.2
20180523115144 11 90 0.0 0.0 0.00 0.00 0.00 88 1007.1
20180523114843 11 90 0.0 3.2 0.00 0.00 0.00 89 1007.2
20180523114239 11 45 1.6 3.2 0.00 0.00 0.00 89 1007.0
20180523113938 11 162 0.0 3.2 0.00 0.00 0.00 89 1007.1